Location: Albany
(35.0000°S, 118.0000°E)
Time: 07:40:00
(UTC-04:00)

Transit 2A - Visible Passes

Search period start: 25 March 2017 00:00
Search period end: 04 April 2017 00:00
Orbit: 602 x 957 km, 66.7° (Epoch: 23 March)

Date Brightness Start Highest point End Pass type
(mag) Time Alt. Az. Time Alt. Az. Time Alt. Az.
26 Mar 9.3 07:39:34 10° SW 07:40:46 11° SW 07:41:58 10° SSW visible
27 Mar 9.0 07:03:03 10° WSW 07:06:18 15° SW 07:09:40 10° S visible
28 Mar 8.9 06:27:39 10° W 06:31:55 20° SW 06:36:25 10° S visible
